Location: Bern�tre
(50.1974°N, 2.0915°E)
Time: 09:23:19
(UTC+00:00)

Nadezhda 4 Rocket - Pass Details

Date: 18 September 2020
Orbit: 949 x 992 km, 82.9° (Epoch: 27 October)

Event Time Altitude Azimuth Distance (km) Brightness Sun altitude
Rises 18:49:29 0° 354° (N) 3,643 7.3 -9.0°
Reaches altitude 10° 18:52:09 10° 1° (N) 2,690 6.5 -9.4°
Maximum altitude 18:57:57 42° 72° (ENE) 1,332 4.4 -10.3°
Drops below altitude 10° 19:03:42 10° 142° (SE) 2,671 5.8 -11.2°
Enters shadow 19:04:39 - 145° (SE) 3,005 6.1 -11.4°
